Location: Clyde
(45.1830°S, 169.3170°E)
Time: 02:53:57
(UTC+13:00)

ERBS - Pass Details

Date: 24 January 2019
Orbit: 418 x 432 km, 57.0° (Epoch: 17 February)

Event Time Altitude Azimuth Distance (km) Brightness Sun altitude
Rises 22:28:50 0° 226° (SW) 2,445 8.5 -10.4°
Reaches altitude 10° 22:31:03 10° 218° (SW) 1,571 6.7 -10.7°
Maximum altitude 22:34:23 40° 147° (SSE) 673 3.3 -11.1°
Enters shadow 22:37:04 14° 80° (E) 1,318 4.3 -11.5°
